| time (UTC) | temp F | wind direction | speed knots | gust knots | rain 1hr in | rain 24hr in | rain mn in | humidity % | barometer mb |
| 20260505180531 | 55 | 192 | 1.7 | 7.0 | 0.00 | 0.02 | 0.02 | 63 | 1006.0 |
| 20260505175529 | 55 | 0 | 1.7 | 5.2 | 0.00 | 0.02 | 0.02 | 68 | 1005.9 |
| 20260505174530 | 55 | 115 | 1.7 | 6.1 | 0.00 | 0.02 | 0.02 | 69 | 1005.7 |
| 20260505174012 | 54 | 277 | 0.9 | 4.3 | 0.00 | 0.02 | 0.02 | 68 | 1005.9 |
| 20260505173528 | 54 | 277 | 0.9 | 4.3 | 0.00 | 0.02 | 0.02 | 68 | 1005.9 |
| 20260505172530 | 54 | 0 | 1.7 | 3.5 | 0.00 | 0.02 | 0.02 | 70 | 1005.8 |
| 20260505171531 | 54 | 0 | 1.7 | 6.1 | 0.00 | 0.02 | 0.02 | 69 | 1005.8 |
| 20260505170531 | 54 | 227 | 0.9 | 5.2 | 0.00 | 0.02 | 0.02 | 73 | 1005.8 |
| 20260505165530 | 52 | 0 | 0.9 | 5.2 | 0.00 | 0.01 | 0.02 | 79 | 1006.0 |
| 20260505164529 | 51 | 0 | 0.0 | 1.7 | 0.01 | 0.01 | 0.02 | 79 | 1006.1 |
| 20260505163529 | 50 | 81 | 0.9 | 3.5 | 0.01 | 0.01 | 0.02 | 80 | 1006.0 |
| 20260505162530 | 50 | 146 | 0.9 | 5.2 | 0.01 | 0.01 | 0.02 | 80 | 1006.1 |
| 20260505162011 | 49 | 0 | 0.0 | 1.7 | 0.01 | 0.01 | 0.02 | 81 | 1006.1 |
| 20260505161739 | 49 | 0 | 0.0 | 1.7 | 0.01 | 0.01 | 0.02 | 81 | 1006.1 |
| 20260505160529 | 49 | 0 | 0.0 | 2.6 | 0.01 | 0.01 | 0.01 | 80 | 1006.1 |
| 20260505160224 | 50 | 318 | 0.9 | 2.6 | 0.01 | 0.00 | 0.01 | 76 | 1006.1 |
| 20260505160114 | 50 | 318 | 0.9 | 2.6 | 0.01 | 0.00 | 0.01 | 76 | 1006.1 |
| 20260505153014 | 51 | 320 | 2.6 | 6.1 | 0.00 | 0.00 | 0.00 | 72 | 1006.2 |
| 20260505152530 | 51 | 320 | 2.6 | 6.1 | 0.00 | 0.00 | 0.00 | 72 | 1006.2 |
| 20260505152013 | 52 | 295 | 1.7 | 4.3 | 0.00 | 0.00 | 0.00 | 69 | 1005.8 |
| 20260505151741 | 52 | 295 | 1.7 | 4.3 | 0.00 | 0.00 | 0.00 | 69 | 1005.8 |
| 20260505151005 | 51 | 0 | 0.0 | 1.7 | 0.00 | 0.00 | 0.00 | 69 | 1005.7 |
| 20260505150741 | 51 | 0 | 0.0 | 1.7 | 0.00 | 0.00 | 0.00 | 69 | 1005.7 |
| 20260505124529 | 52 | 55 | 2.6 | 7.8 | 0.00 | 0.00 | 0.00 | 71 | 1003.3 |
| 20260505124018 | 52 | 49 | 2.6 | 6.1 | 0.00 | 0.00 | 0.00 | 72 | 1003.2 |
| 20260505123742 | 52 | 49 | 2.6 | 6.1 | 0.00 | 0.00 | 0.00 | 72 | 1003.2 |
| 20260505123014 | 51 | 0 | 1.7 | 6.1 | 0.00 | 0.00 | 0.00 | 75 | 1003.1 |
| 20260505122530 | 51 | 0 | 1.7 | 6.1 | 0.00 | 0.00 | 0.00 | 75 | 1003.1 |
| 20260505122517 | 51 | 354 | 2.6 | 6.1 | 0.00 | 0.00 | 0.00 | 77 | 1003.2 |
| 20260505121531 | 51 | 354 | 2.6 | 6.1 | 0.00 | 0.00 | 0.00 | 77 | 1003.2 |
| 20260505121010 | 52 | 2 | 1.7 | 6.1 | 0.00 | 0.00 | 0.00 | 77 | 1003.1 |
| 20260505120744 | 52 | 2 | 1.7 | 6.1 | 0.00 | 0.00 | 0.00 | 77 | 1003.1 |
| 20260505115531 | 53 | 16 | 1.7 | 6.1 | 0.00 | 0.00 | 0.00 | 79 | 1002.8 |
| 20260505115010 | 56 | 92 | 3.5 | 9.6 | 0.00 | 0.00 | 0.00 | 80 | 1002.7 |
| 20260505114744 | 56 | 92 | 3.5 | 9.6 | 0.00 | 0.00 | 0.00 | 80 | 1002.7 |
| 20260505114007 | 56 | 221 | 0.9 | 4.3 | 0.00 | 0.00 | 0.00 | 79 | 1002.1 |
| 20260505113742 | 56 | 221 | 0.9 | 4.3 | 0.00 | 0.00 | 0.00 | 79 | 1002.1 |
| 20260505112942 | 55 | 276 | 0.9 | 2.6 | 0.00 | 0.01 | 0.00 | 83 | 1001.7 |
| 20260505112721 | 56 | 299 | 0.9 | 4.3 | 0.00 | 0.01 | 0.00 | 81 | 1002.0 |
| 20260505111741 | 55 | 276 | 0.9 | 2.6 | 0.00 | 0.01 | 0.00 | 83 | 1001.7 |
| 20260505110530 | 55 | 239 | 0.0 | 0.9 | 0.00 | 0.01 | 0.00 | 85 | 1001.7 |
| 20260505101512 | 56 | 211 | 0.9 | 2.6 | 0.00 | 0.01 | 0.00 | 85 | 1000.6 |
| 20260505100511 | 56 | 223 | 0.9 | 2.6 | 0.00 | 0.01 | 0.00 | 85 | 1000.5 |
| 20260505095949 | 57 | 201 | 1.7 | 2.6 | 0.00 | 0.01 | 0.00 | 84 | 1000.2 |
| 20260505095503 | 57 | 201 | 1.7 | 2.6 | 0.00 | 0.01 | 0.00 | 84 | 1000.2 |
| 20260505094936 | 57 | 217 | 0.9 | 3.5 | 0.00 | 0.01 | 0.00 | 83 | 1000.2 |
| 20260505094714 | 57 | 217 | 0.9 | 3.5 | 0.00 | 0.01 | 0.00 | 83 | 1000.2 |
| 20260505093502 | 58 | 188 | 1.7 | 3.5 | 0.00 | 0.01 | 0.00 | 82 | 1000.0 |
| 20260505092502 | 58 | 223 | 1.7 | 4.3 | 0.00 | 0.01 | 0.00 | 80 | 999.9 |
| 20260505092159 | 58 | 231 | 1.7 | 7.0 | 0.00 | 0.01 | 0.00 | 79 | 999.8 |
| 20260505092038 | 58 | 231 | 1.7 | 7.0 | 0.00 | 0.01 | 0.00 | 79 | 999.8 |
| 20260505090502 | 59 | 215 | 1.7 | 4.3 | 0.00 | 0.01 | 0.00 | 77 | 999.8 |
| 20260505085502 | 59 | 232 | 1.7 | 3.5 | 0.00 | 0.01 | 0.00 | 76 | 999.8 |
| 20260505084502 | 59 | 224 | 1.7 | 3.5 | 0.00 | 0.01 | 0.00 | 75 | 999.8 |
| 20260505084149 | 60 | 231 | 1.7 | 3.5 | 0.00 | 0.01 | 0.00 | 74 | 999.7 |
| 20260505084004 | 60 | 231 | 1.7 | 3.5 | 0.00 | 0.01 | 0.00 | 74 | 999.7 |
| 20260505083221 | 60 | 226 | 1.7 | 3.5 | 0.00 | 0.01 | 0.00 | 73 | 999.6 |
| 20260505083023 | 60 | 226 | 1.7 | 3.5 | 0.00 | 0.01 | 0.00 | 73 | 999.6 |
| 20260505083019 | 60 | 223 | 1.7 | 3.5 | 0.00 | 0.01 | 0.00 | 74 | 999.5 |
| 20260505082509 | 60 | 223 | 1.7 | 3.5 | 0.00 | 0.01 | 0.00 | 74 | 999.5 |
| 20260505080502 | 60 | 237 | 1.7 | 3.5 | 0.00 | 0.01 | 0.00 | 73 | 999.5 |
| 20260505075940 | 60 | 224 | 1.7 | 3.5 | 0.00 | 0.01 | 0.00 | 73 | 999.4 |
| 20260505075500 | 60 | 224 | 1.7 | 3.5 | 0.00 | 0.01 | 0.00 | 73 | 999.4 |
| 20260505074502 | 60 | 246 | 1.7 | 3.5 | 0.00 | 0.01 | 0.00 | 73 | 999.1 |
| 20260505073501 | 60 | 223 | 0.9 | 2.6 | 0.00 | 0.01 | 0.00 | 74 | 998.9 |
| 20260505072932 | 60 | 233 | 1.7 | 2.6 | 0.00 | 0.01 | 0.00 | 73 | 998.7 |
| 20260505072713 | 60 | 233 | 1.7 | 2.6 | 0.00 | 0.01 | 0.00 | 73 | 998.7 |
| 20260505071500 | 60 | 229 | 0.9 | 2.6 | 0.00 | 0.01 | 0.00 | 73 | 998.7 |
| 20260505070503 | 60 | 205 | 1.7 | 4.3 | 0.00 | 0.01 | 0.00 | 73 | 998.9 |
| 20260505065935 | 60 | 0 | 0.9 | 3.5 | 0.00 | 0.01 | 0.00 | 73 | 999.2 |
| 20260505065713 | 60 | 0 | 0.9 | 3.5 | 0.00 | 0.01 | 0.00 | 73 | 999.2 |
| 20260505064501 | 60 | 209 | 0.9 | 2.6 | 0.00 | 0.01 | 0.00 | 73 | 998.9 |
| 20260505064120 | 61 | 226 | 0.9 | 2.6 | 0.00 | 0.01 | 0.00 | 72 | 999.1 |
| 20260505063923 | 61 | 226 | 0.9 | 4.3 | 0.00 | 0.01 | 0.00 | 72 | 999.3 |
| 20260505063637 | 61 | 226 | 0.9 | 2.6 | 0.00 | 0.01 | 0.00 | 72 | 999.1 |
| 20260505062503 | 61 | 226 | 0.9 | 4.3 | 0.00 | 0.01 | 0.00 | 72 | 999.3 |
| 20260505061508 | 61 | 231 | 1.7 | 4.3 | 0.00 | 0.01 | 0.00 | 72 | 999.5 |
| 20260505060501 | 62 | 210 | 1.7 | 5.2 | 0.00 | 0.01 | 0.00 | 70 | 999.5 |
| 20260505055939 | 62 | 222 | 1.7 | 3.5 | 0.00 | 0.00 | 0.00 | 69 | 999.2 |
| 20260505055713 | 62 | 222 | 1.7 | 3.5 | 0.00 | 0.00 | 0.00 | 69 | 999.2 |
| 20260505054502 | 63 | 235 | 1.7 | 3.5 | 0.00 | 0.00 | 0.00 | 69 | 999.0 |
| 20260505053502 | 63 | 245 | 1.7 | 3.5 | 0.00 | 0.00 | 0.00 | 68 | 999.1 |
| 20260505052502 | 63 | 231 | 1.7 | 3.5 | 0.00 | 0.00 | 0.00 | 68 | 999.0 |
| 20260505051502 | 64 | 212 | 1.7 | 3.5 | 0.00 | 0.00 | 0.00 | 70 | 999.1 |
| 20260505050940 | 65 | 162 | 2.6 | 7.0 | 0.00 | 0.00 | 0.00 | 70 | 999.4 |
| 20260505050502 | 65 | 162 | 2.6 | 7.0 | 0.00 | 0.00 | 0.00 | 70 | 999.4 |
| 20260505041502 | 63 | 198 | 1.7 | 3.5 | 0.00 | 0.00 | 0.00 | 71 | 998.8 |
| 20260505040504 | 63 | 153 | 1.7 | 5.2 | 0.00 | 0.00 | 0.00 | 72 | 998.8 |
| 20260505035814 | 0 | 0.0 | 0.0 | 0.00 | 0.00 | 0.00 | |||
| 20260505035630 | 0 | 0.0 | 0.0 | 0.00 | 0.00 | 0.00 | |||
| 20260505035625 | 0 | 0.0 | 0.0 | 0.00 | 0.00 | 0.00 | |||
| 20260505035621 | 0 | 0.0 | 0.0 | 0.00 | 0.00 | 0.00 | |||
| 20260505035615 | 0 | 0.0 | 0.0 | 0.00 | 0.00 | 0.00 | |||
| 20260505035607 | 0 | 0.0 | 0.0 | 0.00 | 0.00 | 0.00 | |||
| 20260505035603 | 76 | 293 | 3.5 | 8.7 | 0.00 | 0.00 | 0.00 | 31 | 1000.2 |
| 20260505035557 | 0 | 0.0 | 0.0 | 0.00 | 0.00 | 0.00 | |||
| 20260505035552 | 0 | 0.0 | 0.0 | 0.00 | 0.00 | 0.00 | |||
| 20260505035541 | 63 | 179 | 1.7 | 7.0 | 0.00 | 0.00 | 0.00 | 72 | 998.9 |
| 20260505035316 | 63 | 183 | 1.7 | 6.1 | 0.00 | 0.00 | 0.00 | 72 | 998.9 |
| 20260505035029 | 0 | 0.0 | 0.0 | 0.00 | 0.00 | 0.00 | |||
| 20260505034913 | 63 | 183 | 1.7 | 6.1 | 0.00 | 0.00 | 0.00 | 72 | 998.9 |
| 20260505034441 | 0 | 0.0 | 0.0 | 0.00 | 0.00 | 0.00 | |||
| 20260505034436 | 0 | 0.0 | 0.0 | 0.00 | 0.00 | 0.00 | |||
| 20260505034150 | 0 | 0.0 | 0.0 | 0.00 | 0.00 | 0.00 | |||
| 20260505034145 | 0 | 0.0 | 0.0 | 0.00 | 0.00 | 0.00 | |||
| 20260505034141 | 62 | 263 | 1.7 | 3.5 | 0.00 | 0.00 | 0.00 | 73 | 998.9 |
| 20260505033622 | 62 | 263 | 1.7 | 3.5 | 0.00 | 0.00 | 0.00 | 73 | 998.9 |
| 20260505033131 | 0 | 0.0 | 0.0 | 0.00 | 0.00 | 0.00 | |||
| 20260505033126 | 76 | 293 | 3.5 | 8.7 | 0.00 | 0.00 | 0.00 | 31 | 1000.2 |
| 20260505033115 | 62 | 172 | 1.7 | 3.5 | 0.00 | 0.00 | 0.00 | 74 | 999.0 |
| 20260505032841 | 76 | 144 | 2.6 | 7.8 | 0.00 | 0.00 | 0.00 | 31 | 1000.2 |
| 20260505032833 | 0 | 0.0 | 0.0 | 0.00 | 0.00 | 0.00 | |||
| 20260505032553 | 62 | 172 | 1.7 | 3.5 | 0.00 | 0.00 | 0.00 | 74 | 999.0 |
| 20260505032327 | 0 | 0.0 | 0.0 | 0.00 | 0.00 | 0.00 | |||
| 20260505032319 | 0 | 0.0 | 0.0 | 0.00 | 0.00 | 0.00 | |||
| 20260505032313 | 0 | 0.0 | 0.0 | 0.00 | 0.00 | 0.00 | |||
| 20260505032038 | 62 | 87 | 1.7 | 3.5 | 0.00 | 0.00 | 0.00 | 75 | 999.2 |
| 20260505031809 | 0 | 0.0 | 0.0 | 0.00 | 0.00 | 0.00 | |||
| 20260505031758 | 0 | 0.0 | 0.0 | 0.00 | 0.00 | 0.00 | |||
| 20260505031750 | 0 | 0.0 | 0.0 | 0.00 | 0.00 | 0.00 | |||
| 20260505031740 | 0 | 0.0 | 0.0 | 0.00 | 0.00 | 0.00 | |||
| 20260505031736 | 0 | 0.0 | 0.0 | 0.00 | 0.00 | 0.00 | |||
| 20260505031714 | 62 | 87 | 1.7 | 3.5 | 0.00 | 0.00 | 0.00 | 75 | 999.2 |
| 20260505031228 | 0 | 0.0 | 0.0 | 0.00 | 0.00 | 0.00 | |||
| 20260505031219 | 0 | 0.0 | 0.0 | 0.00 | 0.00 | 0.00 | |||
| 20260505031210 | 0 | 0.0 | 0.0 | 0.00 | 0.00 | 0.00 | |||
| 20260505031159 | 0 | 0.0 | 0.0 | 0.00 | 0.00 | 0.00 | |||
| 20260505031151 | 0 | 0.0 | 0.0 | 0.00 | 0.00 | 0.00 | |||
| 20260505031141 | 0 | 0.0 | 0.0 | 0.00 | 0.00 | 0.00 | |||
| 20260505031133 | 0 | 0.0 | 0.0 | 0.00 | 0.00 | 0.00 | |||
| 20260505031128 | 0 | 0.0 | 0.0 | 0.00 | 0.00 | 0.00 | |||
| 20260505030852 | 0 | 0.0 | 0.0 | 0.00 | 0.00 | 0.00 | |||
| 20260505030846 | 0 | 0.0 | 0.0 | 0.00 | 0.00 | 0.00 | |||
| 20260505030619 | 0 | 0.0 | 0.0 | 0.00 | 0.00 | 0.00 | |||
| 20260505030609 | 0 | 0.0 | 0.0 | 0.00 | 0.00 | 0.00 | |||
| 20260505030605 | 0 | 0.0 | 0.0 | 0.00 | 0.00 | 0.00 | |||
| 20260505030546 | 62 | 146 | 1.7 | 5.2 | 0.00 | 0.00 | 0.00 | 75 | 999.2 |
| 20260505030320 | 0 | 0.0 | 0.0 | 0.00 | 0.00 | 0.00 | |||
| 20260505030310 | 0 | 0.0 | 0.0 | 0.00 | 0.00 | 0.00 | |||
| 20260505030300 | 0 | 0.0 | 0.0 | 0.00 | 0.00 | 0.00 | |||
| 20260505030251 | 0 | 0.0 | 0.0 | 0.00 | 0.00 | 0.00 | |||
| 20260505030246 | 0 | 0.0 | 0.0 | 0.00 | 0.00 | 0.00 | |||
| 20260505030242 | 0 | 0.0 | 0.0 | 0.00 | 0.00 | 0.00 | |||
| 20260505025947 | 0 | 0.0 | 0.0 | 0.00 | 0.00 | 0.00 | |||
| 20260505025942 | 0 | 0.0 | 0.0 | 0.00 | 0.00 | 0.00 | |||
| 20260505025649 | 0 | 0.0 | 0.0 | 0.00 | 0.00 | 0.00 | |||
| 20260505025644 | 0 | 0.0 | 0.0 | 0.00 | 0.00 | 0.00 | |||
| 20260505025640 | 0 | 0.0 | 0.0 | 0.00 | 0.00 | 0.00 | |||
| 20260505025606 | 62 | 202 | 1.7 | 6.1 | 0.00 | 0.00 | 0.00 | 75 | 999.4 |
| 20260505025326 | 0 | 0.0 | 0.0 | 0.00 | 0.00 | 0.00 | |||
| 20260505025317 | 0 | 0.0 | 0.0 | 0.00 | 0.00 | 0.00 | |||
| 20260505025306 | 0 | 0.0 | 0.0 | 0.00 | 0.00 | 0.00 | |||
| 20260505025300 | 62 | 0 | 1.7 | 7.8 | 0.00 | 0.00 | 0.00 | 74 | 999.4 |
| 20260505024959 | 0 | 0.0 | 0.0 | 0.00 | 0.00 | 0.00 | |||
| 20260505024850 | 62 | 0 | 1.7 | 7.8 | 0.00 | 0.00 | 0.00 | 74 | 999.4 |
| 20260505024413 | 0 | 0.0 | 0.0 | 0.00 | 0.00 | 0.00 | |||
| 20260505024408 | 0 | 0.0 | 0.0 | 0.00 | 0.00 | 0.00 | |||
| 20260505024116 | 0 | 0.0 | 0.0 | 0.00 | 0.00 | 0.00 | |||
| 20260505024111 | 62 | 0 | 2.6 | 7.8 | 0.00 | 0.00 | 0.00 | 74 | 999.4 |
| 20260505023811 | 0 | 0.0 | 0.0 | 0.00 | 0.00 | 0.00 | |||
| 20260505023807 | 0 | 0.0 | 0.0 | 0.00 | 0.00 | 0.00 | |||
| 20260505023718 | 62 | 0 | 2.6 | 7.8 | 0.00 | 0.00 | 0.00 | 74 | 999.4 |
| 20260505023500 | 0 | 0.0 | 0.0 | 0.00 | 0.00 | 0.00 | |||
| 20260505023455 | 0 | 0.0 | 0.0 | 0.00 | 0.00 | 0.00 | |||
| 20260505023449 | 0 | 0.0 | 0.0 | 0.00 | 0.00 | 0.00 | |||
| 20260505023440 | 0 | 0.0 | 0.0 | 0.00 | 0.00 | 0.00 | |||
| 20260505023149 | 0 | 0.0 | 0.0 | 0.00 | 0.00 | 0.00 | |||
| 20260505022853 | 0 | 0.0 | 0.0 | 0.00 | 0.00 | 0.00 | |||
| 20260505022849 | 0 | 0.0 | 0.0 | 0.00 | 0.00 | 0.00 | |||
| 20260505022839 | 0 | 0.0 | 0.0 | 0.00 | 0.00 | 0.00 | |||
| 20260504181300 | 76 | 210 | 2.6 | 9.6 | 0.00 | 0.00 | 0.00 | 33 | 1000.2 |